Simultaneous Nadir Overpasses (SNOs) Predictions

Prediction of SNOs between GOES-16 and METOP-B Satellite Orbit:

Table of predicted SNOs for the next 14.0 days since TLE Epoch: 3/22/2019
Index Date Time (GOES-16) GOES-16 Lat,Lon METOP-B Lat,Lon Distance(km) Time Diff (sec)
1 03/24/2019 14:27:08 0.02, -75.22 -0.06, -74.82 45.58 80
2 03/26/2019 02:48:49 -0.02, -75.21 -0.94, -79.42 479.28 80
3 03/27/2019 02:25:30 -0.01, -75.21 0.13, -74.41 90.50 80
4 03/28/2019 14:47:03 0.01, -75.25 0.84, -78.99 425.80 80
5 03/29/2019 14:23:43 0.01, -75.26 -0.24, -73.98 144.43 80
6 03/31/2019 02:45:25 -0.02, -75.26 -0.77, -78.58 379.23 80
7 04/01/2019 02:22:06 -0.02, -75.27 0.37, -73.60 191.32 80
8 04/02/2019 14:40:59 0.02, -75.32 0.66, -78.15 323.80 80
9 04/03/2019 14:20:20 0.01, -75.33 -0.48, -73.17 247.22 80
10 04/05/2019 02:42:01 -0.01, -75.34 -0.53, -77.77 275.34 80




NCC Satellite Simultaneous Nadir Overpasses (SNOs) Prediction Service
